| time (UTC) | temp C | wind direction | speed KPH | gust KPH | rain 1hr cm | rain 24hr cm | rain mn cm | humidity % | barometer mb |
| 20260506142637 | 7 | 23 | 0.0 | 0.0 | 0.00 | 3.73 | 2.41 | 99 | 1004.7 |
| 20260506135637 | 7 | 5 | 1.6 | 3.2 | 0.00 | 3.71 | 2.39 | 99 | 1005.0 |
| 20260506132636 | 7 | 355 | 3.2 | 4.8 | 0.00 | 3.68 | 2.36 | 99 | 1004.7 |
| 20260506125637 | 7 | 0 | 3.2 | 6.4 | 0.00 | 3.68 | 2.36 | 99 | 1004.4 |
| 20260506122636 | 6 | 3 | 8.0 | 8.0 | 0.00 | 3.68 | 2.36 | 99 | 1004.4 |
| 20260506115637 | 6 | 5 | 3.2 | 4.8 | 0.00 | 3.68 | 2.36 | 99 | 1004.4 |
| 20260506112636 | 6 | 7 | 1.6 | 3.2 | 0.00 | 3.68 | 2.36 | 99 | 1004.4 |
| 20260506105637 | 6 | 25 | 4.8 | 6.4 | 0.00 | 3.68 | 2.36 | 99 | 1004.0 |
| 20260506102637 | 6 | 14 | 3.2 | 4.8 | 0.00 | 3.68 | 2.36 | 99 | 1003.7 |
| 20260506095637 | 7 | 43 | 0.0 | 1.6 | 0.00 | 3.66 | 2.34 | 99 | 1003.3 |
| 20260506092636 | 7 | 25 | 0.0 | 3.2 | 0.00 | 3.66 | 2.34 | 99 | 1003.3 |
| 20260506085637 | 6 | 20 | 4.8 | 6.4 | 0.00 | 3.58 | 2.26 | 99 | 1003.3 |
| 20260506082637 | 6 | 28 | 6.4 | 8.0 | 0.00 | 3.40 | 2.08 | 99 | 1003.0 |
| 20260506072636 | 7 | 25 | 4.8 | 6.4 | 0.00 | 3.20 | 1.88 | 99 | 1003.0 |
| 20260506043351 | 8 | 39 | 1.6 | 4.8 | 0.00 | 2.77 | 1.42 | 99 | 1003.0 |
| 20260506042637 | 8 | 39 | 1.6 | 4.8 | 0.00 | 2.77 | 1.42 | 99 | 1003.0 |
| 20260506035637 | 8 | 32 | 0.0 | 0.0 | 0.00 | 2.64 | 1.32 | 99 | 1003.0 |
| 20260506032714 | 8 | 39 | 0.0 | 1.6 | 0.00 | 2.51 | 1.19 | 99 | 1003.7 |
| 20260506032637 | 8 | 39 | 0.0 | 1.6 | 0.00 | 2.51 | 1.19 | 99 | 1003.7 |
| 20260506025740 | 8 | 38 | 0.0 | 1.6 | 0.00 | 2.34 | 1.02 | 99 | 1003.7 |
| 20260506025637 | 8 | 38 | 0.0 | 1.6 | 0.00 | 2.34 | 1.02 | 99 | 1003.7 |
| 20260506022638 | 8 | 31 | 0.0 | 0.0 | 0.00 | 2.18 | 0.86 | 99 | 1004.0 |
| 20260506015637 | 8 | 39 | 0.0 | 0.0 | 0.00 | 2.06 | 0.71 | 99 | 1004.0 |
| 20260506012637 | 8 | 25 | 0.0 | 0.0 | 0.00 | 1.88 | 0.56 | 99 | 1004.4 |
| 20260506005637 | 8 | 37 | 0.0 | 1.6 | 0.00 | 1.78 | 0.46 | 99 | 1004.4 |
| 20260506002637 | 8 | 46 | 0.0 | 0.0 | 0.00 | 1.63 | 0.30 | 99 | 1004.7 |
| 20260505235637 | 8 | 42 | 1.6 | 3.2 | 0.00 | 1.50 | 0.18 | 99 | 1005.0 |
| 20260505232637 | 8 | 31 | 0.0 | 3.2 | 0.00 | 1.40 | 0.08 | 99 | 1005.0 |
| 20260505225637 | 9 | 60 | 0.0 | 3.2 | 0.00 | 1.35 | 0.03 | 99 | 1005.0 |
| 20260505222637 | 9 | 39 | 1.6 | 3.2 | 0.00 | 1.27 | 0.43 | 99 | 1005.0 |
| 20260505215637 | 10 | 11 | 4.8 | 6.4 | 0.00 | 1.17 | 0.33 | 99 | 1005.4 |
| 20260505212636 | 10 | 57 | 0.0 | 1.6 | 0.00 | 1.04 | 0.20 | 99 | 1005.4 |
| 20260505205637 | 10 | 48 | 0.0 | 0.0 | 0.00 | 0.99 | 0.15 | 99 | 1005.4 |
| 20260505202637 | 10 | 73 | 3.2 | 4.8 | 0.00 | 0.97 | 0.13 | 99 | 1005.0 |
| 20260505195637 | 10 | 49 | 3.2 | 6.4 | 0.00 | 0.97 | 0.13 | 99 | 1005.0 |
| 20260505192637 | 10 | 14 | 3.2 | 6.4 | 0.00 | 0.97 | 0.13 | 99 | 1005.4 |
| 20260505185636 | 10 | 38 | 6.4 | 9.7 | 0.00 | 0.97 | 0.13 | 99 | 1005.4 |
| 20260505182637 | 10 | 15 | 4.8 | 6.4 | 0.00 | 0.97 | 0.13 | 99 | 1005.4 |
| 20260505175637 | 11 | 31 | 1.6 | 3.2 | 0.00 | 0.97 | 0.13 | 99 | 1005.4 |
| 20260505172637 | 11 | 25 | 3.2 | 4.8 | 0.00 | 0.97 | 0.13 | 99 | 1005.7 |
| 20260505165636 | 11 | 51 | 0.0 | 3.2 | 0.00 | 0.97 | 0.13 | 99 | 1006.0 |
| 20260505162636 | 11 | 23 | 3.2 | 4.8 | 0.00 | 0.97 | 0.13 | 99 | 1005.7 |
| 20260505152636 | 12 | 24 | 0.0 | 4.8 | 0.00 | 0.97 | 0.13 | 97 | 1006.0 |